Regional Weather Roundup
Issued by NWS Green Bay, WI

Home | Current Version | Previous Version | Graphics & Text | Print | Product List | Glossary Off
Versions: 1 2 3 4 5 6 7 8 9 10 11 12 13 14 15 16 17 18 19 20 21 22 23 24 25 26 27 28 29 30 31 32 33 34 35 36 37 38 39 40 41 42 43 44 45 46 47 48 49 50

000
ASUS43 KGRB 222010
RWRGRB

NORTH-CENTRAL AND NORTHEAST WISCONSIN REGIONAL WEATHER ROUNDUP
NATIONAL WEATHER SERVICE GREEN BAY WI
300 PM CDT TUE APR 22 2014

WIZ005-009-010>012-018-019-222100-
NORTH CENTRAL WISCONSIN

CITY           SKY/WX    TMP DP  RH WIND       PRES   REMARKS
IRONWOOD       PTSUNNY   45  27  49 N12G17    30.05R
MANITOWISH WTR CLOUDY    40  25  53 N8        30.05R
ARBOR VITAE    PTSUNNY   45  26  46 N17G25    30.04S
EAGLE RIVER    CLOUDY    39  24  53 N10G21    30.03R
LAND O LAKES   CLOUDY    39  26  60 N12G17    30.03S
RHINELANDER    PTSUNNY   42  24  49 NW16G25   30.03S
PHILLIPS       MOSUNNY   44  23  44 N13G20    30.05R
ANTIGO         MOSUNNY   43  28  54 N21G28    30.02R
TOMAHAWK       MOSUNNY   45  24  42 NW13G26   30.04R
MERRILL        SUNNY     48  25  41 N15G22    30.02S
$$

WIZ013-073-222100-
NORTHEAST WISCONSIN

CITY           SKY/WX    TMP DP  RH WIND       PRES   REMARKS
IRON MOUNTAIN  CLOUDY    42  26  53 NW17G24   29.98S
MARINETTE      CLOUDY    45  25  45 N15G29    29.98R
OCONTO         CLOUDY    45  27  49 NW13G26   30.00S
$$

WIZ017-030-035>037-045-222100-
CENTRAL WISCONSIN

CITY           SKY/WX    TMP DP  RH WIND       PRES   REMARKS
MEDFORD        MOSUNNY   49  26  41 NW16G22   30.02S
WAUSAU         SUNNY     49  23  36 NW16G24   30.00S
MOSINEE        MOSUNNY   48  27  43 MISG      30.03R
MARSHFIELD     MOSUNNY   53  26  35 N16G24    30.02R
WISC RAPIDS    SUNNY     55  24  30 NW16G26   30.02S
STEVENS POINT  MOSUNNY   49  23  36 N18G25    30.01R
WAUPACA        SUNNY     55  23  28 NW14G23   29.99S
SHAWANO        MOSUNNY   51  29  42 N15G25    30.00S
CLINTONVILLE   MOSUNNY   48  23  37 N10G22    30.00R
$$

WIZ038-039-048-051-222100-
FOX VALLEY

CITY           SKY/WX    TMP DP  RH WIND       PRES   REMARKS
NWS GREEN BAY  PTSUNNY   49  30  48 N15G30    29.99S
APPLETON       MOSUNNY   50  37  62 N16G24    29.99S
OSHKOSH        SUNNY     52  26  36 NW13G28   29.98R
FOND DU LAC    SUNNY     53  27  36 N20G28    29.98R
$$

WIZ022-050-052-222100-
EAST CENTRAL WISCONSIN

CITY           SKY/WX    TMP DP  RH WIND       PRES   REMARKS
STURGEON BAY   CLOUDY    45  27  49 NW15G22   29.99R
MANITOWOC      CLOUDY    48  29  47 N16G24    29.98R
SHEBOYGAN      CLOUDY    50  29  44 N15G25    29.97S
$$

LMZ563-521-522-541>543-222100-
LAKESHORE

STATION/POSITION TIME  TEMP    WIND        PRES    VSBY  WAVE
                       AIR SEA DIR/SP/G                  HT/PER
                 (UTC) (F)     (DEG/KT/KT) (MB)    (MI)  (FT/S)
SHEBOYGAN LKSHOR 2000   48      10/ 19/ 21 1015.5R
KEWAUNEE LKSHORE 2000   46     310/ 17/ 23 1015.9R
NORTHPORT PIER   2000   36     310/ 11/ 13 1014.9S
SISTER BAY LKSHO 2000   40     350/ 12/ 13   N/A
MENOMINEE LKSHOR 2000   41     320/ 15/ 19 1015.7S
$$



USA.gov is the U.S. government's official web portal to all federal, state and local government web resources and services.